Le nostre stazioni meteo in Italia

Pubblicità
Il mio iltempo24.it
Cassley, Gran Bretagna (99003): Temperatura & dewpoint: 13.04.2019 16:00:00 - 19.04.2019 16:00:00 (BST)Cassley, Gran Bretagna (99003): precipitazioni: 13.04.2019 16:00:00 - 19.04.2019 16:00:00 (BST)
Data & Tempo tt [°C] td [°C] rr [mm]
19.04.2019 16:00:00 22,0 3,4 0,0
19.04.2019 15:00:00 22,0 5,2 0,0
19.04.2019 14:00:00 20,3 7,3 0,0
19.04.2019 13:00:00 19,2 8,4 0,0
19.04.2019 12:00:00 14,5 6,5 0,0
19.04.2019 11:00:00 12,4 6,1 0,0
19.04.2019 10:00:00 8,6 5,9 0,0
19.04.2019 09:00:00 6,2 4,9 0,0
19.04.2019 08:00:00 5,1 4,5 0,0
19.04.2019 07:00:00 4,1 3,7 0,0
19.04.2019 06:00:00 2,8 2,1 0,0
19.04.2019 05:00:00 3,1 2,3 0,0
19.04.2019 04:00:00 3,3 2,6 0,0
19.04.2019 03:00:00 3,8 2,8 0,0
19.04.2019 02:00:00 4,6 2,9 0,0
19.04.2019 01:00:00 5,5 3,7 0,0
19.04.2019 00:00:00 6,1 3,9 0,0
18.04.2019 23:00:00 8,5 5,0 0,0
18.04.2019 22:00:00 8,6 4,3 0,0
18.04.2019 21:00:00 10,8 5,9 0,0
18.04.2019 20:00:00 11,0 6,3 0,0
18.04.2019 19:00:00 13,8 6,9 0,0
18.04.2019 18:00:00 13,3 6,4 0,0
18.04.2019 17:00:00 15,1 6,4 0,0
18.04.2019 16:00:00 16,7 5,2 0,0
18.04.2019 15:00:00 17,0 3,6 0,0
18.04.2019 14:00:00 15,4 5,9 0,0
18.04.2019 13:00:00 14,0 5,9 0,0
18.04.2019 12:00:00 12,6 4,9 0,0
18.04.2019 11:00:00 9,3 4,2 0,0
18.04.2019 10:00:00 6,6 3,6 0,0
18.04.2019 09:00:00 4,7 3,0 0,0
18.04.2019 08:00:00 3,2 2,4 0,0
18.04.2019 07:00:00 1,9 1,4 0,0
18.04.2019 06:00:00 1,0 0,3 0,0
18.04.2019 05:00:00 1,5 1,0 0,0
18.04.2019 04:00:00 1,2 0,6 0,0
18.04.2019 03:00:00 1,2 0,5 0,0
18.04.2019 02:00:00 1,6 0,7 0,0
18.04.2019 01:00:00 2,3 0,9 0,0
18.04.2019 00:00:00 3,1 1,7 0,0
17.04.2019 23:00:00 3,6 1,5 0,0
17.04.2019 22:00:00 4,6 1,2 0,0
17.04.2019 21:00:00 7,3 3,9 0,0
17.04.2019 20:00:00 8,8 4,3 0,0
17.04.2019 19:00:00 12,0 3,8 0,0
17.04.2019 18:00:00 12,4 3,9 0,0
17.04.2019 17:00:00 12,7 2,9 0,0
17.04.2019 16:00:00 12,2 2,9 0,0
17.04.2019 15:00:00 9,6 3,9 0,0
17.04.2019 14:00:00 10,0 4,8 0,0
17.04.2019 13:00:00 8,7 4,4 0,0
17.04.2019 12:00:00 8,1 4,0 0,0
17.04.2019 11:00:00 8,2 4,5 0,0
17.04.2019 10:00:00 6,6 4,4 0,0
17.04.2019 09:00:00 5,8 4,2 0,0
17.04.2019 08:00:00 5,1 3,9 0,0
17.04.2019 07:00:00 4,7 3,6 0,0
17.04.2019 06:00:00 4,6 3,5 0,0
17.04.2019 05:00:00 4,8 4,0 0,2
17.04.2019 04:00:00 4,6 3,7 0,2
17.04.2019 03:00:00 4,8 3,8 0,6
17.04.2019 02:00:00 5,0 3,6 0,4
17.04.2019 01:00:00 5,2 3,8 0,0
17.04.2019 00:00:00 5,9 3,5 0,0
16.04.2019 23:00:00 6,2 3,6 0,0
16.04.2019 22:00:00 6,3 4,0 0,0
16.04.2019 21:00:00 6,7 4,2 0,0
16.04.2019 20:00:00 7,3 4,1 0,0
16.04.2019 19:00:00 7,9 4,2 0,0
16.04.2019 18:00:00 8,3 4,6 0,0
16.04.2019 17:00:00 8,7 4,8 0,0
16.04.2019 16:00:00 9,3 5,1 0,0
16.04.2019 15:00:00 9,2 5,1 0,0
16.04.2019 14:00:00 9,3 4,9 0,0
16.04.2019 13:00:00 9,0 4,9 0,0
16.04.2019 12:00:00 8,4 4,9 0,0
16.04.2019 11:00:00 8,0 4,8 0,0
16.04.2019 10:00:00 7,4 4,8 0,0
16.04.2019 09:00:00 6,9 4,5 0,0
16.04.2019 08:00:00 6,7 4,4 0,0
16.04.2019 07:00:00 6,3 4,3 0,0
16.04.2019 06:00:00 6,2 4,2 0,0
16.04.2019 05:00:00 6,3 4,1 0,0
16.04.2019 04:00:00 6,4 3,9 0,0
16.04.2019 03:00:00 6,6 3,9 0,0
16.04.2019 02:00:00 6,8 3,8 0,0
16.04.2019 01:00:00 6,8 3,8 0,0
16.04.2019 00:00:00 6,8 4,0 0,0
15.04.2019 23:00:00 6,8 4,0 0,0
15.04.2019 22:00:00 6,8 3,8 0,0
15.04.2019 21:00:00 6,9 3,6 0,0
15.04.2019 20:00:00 7,1 4,1 0,0
15.04.2019 19:00:00 7,3 4,0 0,0
15.04.2019 18:00:00 8,0 2,7 0,0
15.04.2019 17:00:00 8,5 2,0 0,0
15.04.2019 16:00:00 9,0 1,5 0,0
15.04.2019 15:00:00 8,8 0,8 0,0
15.04.2019 14:00:00 8,3 0,9 0,0
15.04.2019 13:00:00 7,2 1,1 0,0
15.04.2019 12:00:00 6,6 1,4 0,0
15.04.2019 11:00:00 6,9 0,7 0,0
15.04.2019 10:00:00 5,9 0,1 0,0
15.04.2019 09:00:00 5,5 0,9 0,0
15.04.2019 08:00:00 4,3 1,6 0,0
15.04.2019 07:00:00 4,2 1,6 0,0
15.04.2019 06:00:00 3,8 0,6 0,0
15.04.2019 05:00:00 3,9 0,4 0,0
15.04.2019 04:00:00 4,2 0,5 0,0
15.04.2019 03:00:00 2,6 0,1 0,0
15.04.2019 02:00:00 2,8 -0,2 0,0
15.04.2019 01:00:00 3,3 -0,5 0,0
15.04.2019 00:00:00 3,8 0,0 0,0
14.04.2019 23:00:00 4,1 0,0 0,0
14.04.2019 22:00:00 4,2 0,0 0,0
14.04.2019 21:00:00 4,6 0,9 0,0
14.04.2019 20:00:00 6,1 0,7 0,0
14.04.2019 19:00:00 7,2 -1,3 0,0
14.04.2019 18:00:00 7,5 1,1 0,0
14.04.2019 17:00:00 8,4 -1,5 0,0
14.04.2019 16:00:00 8,6 1,5 0,0
14.04.2019 15:00:00 9,2 -0,5 0,0
14.04.2019 14:00:00 9,2 -0,8 0,0
14.04.2019 13:00:00 8,1 0,1 0,0
14.04.2019 12:00:00 7,4 -0,5 0,0
14.04.2019 11:00:00 7,0 0,1 0,0
14.04.2019 10:00:00 6,5 0,2 0,0
14.04.2019 09:00:00 5,4 -0,4 0,0
14.04.2019 08:00:00 3,2 -0,7 0,0
14.04.2019 07:00:00 2,2 -1,0 0,0
14.04.2019 06:00:00 1,3 -1,7 0,0
14.04.2019 05:00:00 1,5 -1,5 0,0
14.04.2019 04:00:00 1,7 -1,2 0,0
14.04.2019 03:00:00 1,6 -1,2 0,0
14.04.2019 02:00:00 2,1 -1,1 0,0
14.04.2019 01:00:00 1,8 -1,4 0,0
14.04.2019 00:00:00 2,3 -1,4 0,0
13.04.2019 23:00:00 2,4 -1,7 0,0
13.04.2019 22:00:00 3,0 -1,4 0,0
13.04.2019 21:00:00 3,3 -2,0 0,0
13.04.2019 20:00:00 5,4 -1,7 0,0
13.04.2019 19:00:00 7,5 -2,3 0,0
13.04.2019 18:00:00 8,7 -2,7 0,0
13.04.2019 17:00:00 9,1 -1,7 0,0
13.04.2019 16:00:00 9,8 -1,4 0,0

tt = Temperatura
td = dewpoint
rr = precipitazioni

Stazioni seguenti

WeatherPro
AMSI
MeteoEarth